User: anonymous   Login
Location: *
(39.6167°S, 171.5333°W)
Time: 15:42:40
(UTC+00:00)
Language:

CZ-4C R/B - Orbit

View from above orbital plane
View from above orbital plane
View from above satellite
View from above satellite

Ground track
Ground track

The orbit data is extracted from the following two-line orbital elements,

1 32290U 07055B   21208.43463667  .00003220  00000-0  77893-4 0  9990
2 32290  97.6848  28.8692 0058285 166.2529 194.0320 15.40199532762489
Epoch (UTC): 27 July 2021 10:25:52
Eccentricity: 0.0058285
inclination: 97.6848°
perigee height: 406 km
apogee height: 485 km
right ascension of ascending node: 28.8692°
argument of perigee: 166.2529°
revolutions per day: 15.40199532
mean anomaly at epoch: 194.0320°
orbit number at epoch: 76248

The dashed part of the orbit path shows where the satellite is in the earth's shadow,  

DLR